SCP
-0 -0 -0 -0 -0 -0 -0 -0 -0 -0 -0 -0 -0 -0 -0 -0 0 -0 -0 0 0 -0 -0 0 0 0 0 0 0 0 0 0 0 0 0 0 0 0 0 0 0 0 0 0 0
-0 -0 -0 -0 -0 -0 -0 -0 -0 -0 -0 -0 -0 -0 0 0 0 0 -0 -0 -0 -0 0 0 0 0 0 0 0 0 0 0 0 0 0 0 0 0 0 0 0 0 0 0 0
-0 -0 -0 -0 -0 -0 -0 -0 -0 -0 -0 -0 -0 0 0 -0 0 0 -0 -0 -0 0 0 0 0 0 0 0 0 0 0 0 0 0 0 0 0 0 0 0 0 0 0 0 0
-0 -0 -0 -0 -0 -0 -0 -0 -0 0 0 -0 -0 -0 -0 -0 0 0 -0 0 0 0 0 0 0 0 0 0 0 0 0 0 0 0 0 0 0 0 0 0 0 0 0 0 0
0 -0 -0 -0 -0 -0 -0 0 -0 0 -0 -0 -0 -0 -0 0 0 0 0 0 0 0 0 0 0 0 0 0 0 0 0 0 0 0 0 0 0 0 0 0 0 0 0 0 0
0 0 -0 -0 -0 -0 -0 -0 -0 -0 -0 -0 -0 -0 -0 0 -0 0 0 0 0 0 0 0 0 0 0 0 0 0 0 0 0 0 0 0 0 0 0 0 0 0 0 0 0
0 0 0 0 0 -0 -0 -0 -0 -0 -0 -0 -0 0 0 0 -0 -0 0 -0 -0 0 0 0 0 0 0 0 0 0 0 0 0 0 0 0 0 0 0 0 0 0 0 0 0
0 0 0 0 -0 -0 0 -0 -0 -0 -0 -0 -0 0 0 -0 -0 -0 -0 -0 -0 0 0 0 0 0 0 0 0 0 0 0 0 0 0 0 0 0 0 0 0 0 0 0 0
0 0 0 -0 -0 -0 -0 -0 -0 -0 -0 -0 -0 -0 0 -0 0 -0 0 0 -0 0 0 0 0 0 0 0 0 0 0 0 0 0 0 0 0 0 0 0 0 0 0 0 0
0 0 0 0 0 -0 0 0 -0 0 -0 -0 0 0 0 0 0 -0 -0 -0 0 0 0 0 0 0 0 0 0 0 0 0 0 0 0 0 0 0 0 0 0 0 0 0 0
0 0 0 0 0 0 0 -0 -0 0 0 0 0 0 0 0 0 0 -0 0 0 0 0 0 0 0 0 0 0 0 0 0 0 0 0 0 0 0 0 0 0 0 0 0 0
0 0 0 0 0 0 -0 -0 -0 0 0 0 0 0 0 0 0 0 -0 0 0 0 0 0 0 0 0 0 0 0 0 0 0 0 0 0 0 0 0 0 0 0 0 0 0
0 0 0 0 0 0 -0 -0 0 0 0 0 0 0 0 0 0 0 0 0 0 0 0 0 0 0 0 0 0 0 0 0 0 0 0 0 0 0 0 0 0 0 0 0 0
0 0 0 0 0 0 0 -0 0 0 0 0 0 0 0 0 0 0 0 0 0 0 0 0 0 0 0 0 0 0 0 0 0 0 0 0 0 0 0 0 0 0 0 0 0
0 0 0 0 0 0 0 0 0 0 0 0 0 0 0 0 0 0 0 0 0 0 0 0 0 0 0 0 0 0 0 0 0 0 0 0 0 0 0 0 0 0 0 0 0
0 0 0 0 0 0 0 0 0 0 0 0 0 0 0 0 0 0 0 0 0 0 0 0 0 0 0 0 0 0 0 0 0 0 0 0 0 0 0 0 0 0 0 0 0
0 0 0 0 0 0 0 0 0 0 0 0 0 0 0 0 0 0 0 0 0 0 0 0 0 0 0 0 0 0 0 0 0 0 0 0 0 0 0 0 0 0 0 0 0
0 0 0 0 0 0 0 0 0 0 0 0 0 0 0 0 0 0 0 0 0 0 0 0 0 0 0 0 0 0 0 0 0 0 0 0 0 0 0 0 0 0 0 0 0
0 0 0 0 0 0 0 0 0 0 0 0 0 0 0 0 0 0 0 0 0 0 0 0 0 0 0 0 0 0 0 0 0 0 0 0 0 0 0 0 0 0 0 0 0
0 0 0 0 0 0 0 0 0 0 0 0 0 0 0 0 0 0 0 0 0 0 0 0 0 0 0 0 0 0 0 0 0 0 0 0 0 0 0 0 0 0 0 0 0
0 0 0 0 0 0 0 0 0 0 0 0 0 0 0 0 0 0 0 0 0 0 0 0 0 0 0 0 0 0 0 0 0 0 0 0 0 0 0 0 0 0 0 0 0
0 0 0 0 0 0 0 0 0 0 0 0 0 0 0 0 0 0 0 0 0 0 0 0 0 0 0 0 0 0 0 0 0 0 0 0 0 0 0 0 0 0 0 0 0
0 0 0 0 0 0 0 0 0 0 0 0 0 0 0 0 0 0 0 0 0 0 0 0 0 0 0 0 0 0 0 0 0 0 0 0 0 0 0 0 0 0 0 0 0
0 0 0 0 0 0 0 0 0 0 0 0 0 0 0 0 0 0 0 0 0 0 0 0 0 0 0 0 0 0 0 0 0 0 0 0 0 0 0 0 0 0 0 0 0
0 0 0 0 0 0 0 0 0 0 0 0 0 0 0 0 0 0 0 0 0 0 0 0 0 0 0 0 0 0 0 0 0 0 0 0 0 0 0 0 0 0 0 0 0
0 0 0 0 0 0 0 0 0 0 0 0 0 0 0 0 0 0 0 0 0 0 0 0 0 0 0 0 0 0 0 0 0 0 0 0 0 0 0 0 0 0 0 0 0
0 0 0 0 0 0 0 0 0 0 0 0 0 0 0 0 0 0 0 0 0 0 0 0 0 0 0 0 0 0 0 0 0 0 0 0 0 0 0 0 0 0 0 0 0
Wind_Speed_500mb
33 34 34 35 33 30 29 27 25 23 19 14 9 3 4 10 29 16 17 28 29 21 15 11 10 11 14 12 8 3 9 2 2 2 7 7 8 3 11 8 4 5 6 12 17
37 36 37 39 38 32 28 27 24 23 20 16 13 10 4 4 11 41 32 24 19 17 10 13 16 15 10 7 8 10 7 10 3 4 3 8 6 13 10 17 4 5 11 25 29
37 38 40 42 42 36 29 28 23 24 20 14 14 13 10 3 5 27 32 24 18 18 10 11 13 13 12 10 14 5 6 3 3 3 6 7 10 15 7 10 9 16 25 27 31
35 39 41 43 46 40 29 27 22 24 20 12 10 9 12 11 4 23 30 21 18 19 10 10 8 7 9 9 10 6 7 3 5 3 5 7 15 19 13 21 38 35 33 24 18
34 35 38 41 43 44 33 26 23 22 19 12 11 10 7 12 14 24 28 21 18 17 16 15 26 10 9 5 5 6 5 13 9 18 15 16 14 13 34 23 13 6 10 19 22
32 34 37 38 38 42 39 28 22 18 18 10 10 16 9 11 16 27 28 18 19 19 26 21 17 19 12 7 6 6 11 20 7 6 8 7 11 19 8 7 17 22 22 23 24
28 30 33 36 38 38 39 29 19 14 20 9 5 4 19 12 15 25 29 18 19 18 23 25 21 8 7 5 5 5 10 12 3 4 4 6 13 14 13 15 24 22 23 30 20
26 29 31 34 38 37 37 30 14 13 20 7 7 7 9 14 17 17 23 17 14 14 16 15 12 18 9 4 7 10 9 10 7 3 4 8 16 24 29 40 37 31 28 17 13
26 26 33 32 35 33 37 31 19 8 19 9 6 5 7 9 14 17 21 16 12 12 12 9 10 10 6 7 8 14 2 4 17 5 6 6 18 37 35 31 40 34 20 19 13
23 26 31 33 35 30 39 31 23 4 22 6 7 4 7 10 10 13 17 12 8 7 6 9 9 7 8 9 4 6 3 7 11 9 8 17 36 39 49 30 40 25 21 13 14
21 24 29 31 33 31 40 26 20 5 19 8 6 3 4 12 5 10 19 7 7 10 8 10 10 4 7 6 6 5 6 10 12 14 12 15 27 46 45 36 19 24 17 9 18
23 25 25 28 33 32 35 22 17 13 11 4 2 3 4 11 3 8 15 4 8 4 9 11 3 6 4 1 1 4 2 13 13 6 12 10 33 33 16 10 23 24 12 10 35
25 24 27 29 37 24 28 27 28 22 3 4 3 5 4 6 4 8 12 7 10 7 5 8 0 6 4 4 3 7 9 6 10 11 9 15 15 9 5 2 18 15 1 20 44
34 30 32 24 20 26 20 27 30 26 8 4 1 2 4 7 4 10 9 4 6 5 7 6 3 3 4 5 9 5 9 6 6 9 4 9 10 11 5 7 9 9 11 31 48
19 33 37 23 23 25 22 22 26 11 7 2 1 3 7 4 7 3 8 5 5 5 10 10 5 6 3 8 9 14 7 8 2 5 7 8 5 15 4 11 16 14 19 38 45
34 30 25 21 22 15 13 20 15 10 10 4 4 4 7 7 3 6 2 3 2 6 1 9 2 4 6 3 4 8 8 11 7 7 5 9 8 13 7 10 4 8 24 34 44
26 23 13 15 11 14 11 15 9 7 4 9 2 4 3 5 4 7 4 3 3 8 7 10 4 2 3 2 5 13 12 8 11 8 10 8 3 23 12 10 11 11 28 37 43
20 9 13 10 9 8 9 8 6 6 7 4 2 1 1 5 2 8 5 4 2 6 6 6 12 4 1 4 8 4 11 9 11 6 10 6 12 12 11 17 12 16 25 33 38
10 13 15 15 7 4 4 5 13 11 5 3 2 8 9 2 4 8 5 7 8 10 12 7 9 1 4 4 8 6 2 5 8 2 5 6 16 21 3 8 19 22 23 34 39
11 13 18 18 12 10 4 8 6 4 4 2 7 6 5 7 3 7 4 5 8 5 4 7 6 3 5 7 8 9 4 6 6 4 11 12 13 13 12 19 21 18 29 40 40
22 7 8 12 15 9 5 9 8 9 8 8 6 2 9 5 7 5 6 3 6 7 6 8 6 10 5 9 16 2 3 6 7 7 9 8 14 17 19 16 19 21 31 42 43
6 2 9 12 3 4 5 7 4 6 6 8 4 6 11 10 6 6 9 10 12 16 9 7 7 6 20 4 9 8 13 11 8 11 7 4 18 9 16 13 26 34 40 48 45
8 8 15 23 6 6 3 5 4 6 6 6 9 9 6 11 3 8 5 1 14 11 10 9 3 7 16 9 6 6 9 8 6 4 12 7 15 7 7 15 31 43 49 52 37
9 3 7 19 11 4 6 7 6 7 6 8 4 7 6 3 4 5 5 2 9 9 8 11 7 14 14 13 6 7 9 14 11 7 8 23 34 53 28 21 25 46 47 35 28
13 12 12 7 12 13 11 9 7 7 9 13 4 13 13 9 4 10 9 5 9 14 10 8 9 6 18 15 11 27 30 25 27 25 18 46 19 41 42 30 35 61 52 28 25
12 13 13 9 8 17 19 14 21 7 15 10 11 13 15 13 18 17 11 10 11 6 10 8 7 3 10 16 24 29 34 38 39 40 35 47 51 58 75 59 40 35 21 29 19
35 41 16 17 13 11 12 17 18 21 24 21 22 10 17 36 31 13 18 5 10 16 15 9 6 4 11 9 17 20 21 27 11 9 28 17 37 4 15 12 26 31 21 26 14
Wind_Direction_500mb
44 40 36 35 33 33 36 36 34 34 33 33 33 16 315 39 45 53 25 15 12 10 16 48 80 91 98 86 83 119 66 144 104 100 171 6 9 265 300 241 316 250 347 333 337
47 43 40 35 31 31 30 29 29 30 33 35 45 56 65 38 43 36 27 11 5 5 33 86 77 76 73 53 36 71 101 179 176 152 217 318 345 312 332 313 247 245 270 312 322
50 47 43 36 32 29 27 22 27 25 29 50 66 60 47 54 49 12 14 7 1 7 28 63 72 63 67 35 19 41 137 154 148 90 332 303 310 314 316 311 227 287 311 318 319
53 47 43 37 32 27 22 20 23 23 30 47 40 36 35 41 104 7 8 11 8 11 26 64 73 59 63 43 18 81 51 60 222 303 315 288 309 307 245 264 298 297 289 286 299
43 41 35 33 29 26 25 19 19 20 30 43 37 28 34 65 42 19 9 15 10 19 47 88 68 69 82 67 29 59 323 306 294 301 283 287 267 270 277 315 313 263 285 278 278
38 31 31 26 21 19 19 14 12 26 19 24 43 35 61 75 35 20 10 13 26 43 61 73 74 85 97 73 71 325 301 295 300 281 263 294 298 331 294 284 284 293 312 269 278
28 28 23 21 18 16 14 13 23 36 5 358 331 69 72 63 29 14 4 23 33 65 75 75 74 106 89 70 6 323 351 342 307 316 283 349 300 225 254 316 277 275 280 283 257
17 15 16 15 14 12 10 5 18 34 12 45 86 95 94 44 26 12 14 31 41 72 85 66 78 75 62 57 27 27 42 3 302 336 332 83 268 276 291 293 273 269 295 222 251
359 2 5 5 4 5 5 355 357 0 19 46 67 118 85 32 14 24 21 40 55 71 77 58 68 61 66 77 23 13 226 316 317 307 263 199 273 261 296 281 275 281 230 239 259
345 347 345 349 356 1 4 355 350 324 8 36 52 112 64 353 8 25 25 33 49 84 71 42 44 63 30 64 222 251 346 266 257 280 353 294 279 287 298 287 277 238 215 228 286
325 330 333 335 351 351 357 2 0 332 358 16 341 32 6 359 32 24 14 15 54 57 39 17 64 177 207 163 139 163 230 241 262 272 312 249 281 286 297 297 264 187 193 247 303
299 316 326 329 339 342 351 27 15 322 312 345 322 291 334 2 353 23 11 46 56 84 346 20 184 192 151 184 239 187 191 271 288 307 337 305 288 292 296 240 197 185 197 318 326
300 311 327 321 322 332 352 4 347 342 293 323 303 299 324 354 4 2 14 62 86 59 30 150 184 149 94 0 354 239 191 242 250 321 258 305 291 313 336 119 176 166 356 321 329
293 305 314 315 326 334 340 344 338 341 67 273 333 331 331 345 26 356 23 54 64 158 171 209 315 144 54 267 137 299 186 263 286 36 275 40 280 297 282 205 198 203 311 325 329
271 303 303 308 307 317 319 325 329 339 9 281 291 288 350 35 328 22 12 15 146 203 92 256 171 198 140 231 140 236 341 302 167 131 38 320 61 269 272 236 228 240 309 328 327
292 295 298 299 304 309 324 319 328 41 263 324 312 321 22 24 27 339 2 22 104 122 20 232 327 176 220 287 232 316 16 34 50 95 9 240 124 277 239 220 211 256 305 322 332
293 295 294 305 311 312 314 319 29 139 354 293 338 32 142 309 5 20 333 306 183 43 340 337 253 269 216 343 19 50 49 343 349 4 228 324 351 246 256 229 209 263 315 326 332
279 284 285 298 341 341 332 52 129 237 256 293 276 24 77 2 25 333 329 309 165 93 96 119 325 144 353 154 180 66 135 147 251 269 277 360 236 253 232 202 218 271 298 315 324
262 267 270 271 261 266 222 79 205 208 132 193 17 66 317 292 168 33 230 213 199 172 163 128 280 215 56 85 109 256 74 147 100 104 23 256 287 294 159 283 257 271 298 316 324
259 252 272 246 231 202 105 243 214 206 141 156 170 139 208 266 346 63 214 214 180 177 167 185 344 260 281 91 22 147 153 47 7 336 298 287 282 243 280 252 251 276 290 326 319
221 225 250 241 186 180 207 235 235 217 203 192 211 198 220 227 175 250 249 271 139 143 111 128 99 285 59 199 183 20 348 44 129 151 194 291 269 224 234 230 232 244 283 319 310
209 210 214 180 185 211 206 202 213 214 219 225 211 157 182 177 214 243 240 214 175 155 167 199 142 243 224 250 200 174 185 160 134 261 233 199 266 238 235 240 224 258 284 310 310
217 206 205 177 199 214 246 284 243 199 209 207 211 201 161 189 222 216 256 12 170 164 163 180 298 349 338 7 354 214 204 163 131 108 207 154 264 308 293 279 251 264 291 310 300
207 164 184 206 235 206 164 223 245 222 251 207 204 149 149 201 226 244 251 218 207 194 167 171 198 192 220 212 143 217 218 207 152 162 195 232 274 288 290 261 274 281 297 304 304
230 232 200 191 226 199 206 169 189 229 220 208 301 219 175 189 211 227 216 237 199 197 173 137 217 249 267 259 219 244 250 228 209 217 203 263 222 267 284 293 287 298 303 294 304
223 208 205 196 176 196 201 201 215 190 163 231 219 194 185 192 195 196 176 194 208 135 159 177 261 107 281 265 266 264 249 244 228 236 243 254 274 270 276 283 281 291 285 293 309
226 238 233 201 172 179 197 206 221 162 224 215 209 156 200 233 227 225 214 264 200 162 183 172 165 58 268 334 315 286 244 229 179 205 217 207 238 357 282 259 266 289 279 290 302
Wind_Speed_850mb
33 34 34 35 33 30 29 27 25 23 19 14 9 3 4 10 29 16 17 28 29 21 15 11 10 11 14 12 8 3 9 2 2 2 7 7 8 3 11 8 4 5 6 12 17
37 36 37 39 38 32 28 27 24 23 20 16 13 10 4 4 11 41 32 24 19 17 10 13 16 15 10 7 8 10 7 10 3 4 3 8 6 13 10 17 4 5 11 25 29
37 38 40 42 42 36 29 28 23 24 20 14 14 13 10 3 5 27 32 24 18 18 10 11 13 13 12 10 14 5 6 3 3 3 6 7 10 15 7 10 9 16 25 27 31
35 39 41 43 46 40 29 27 22 24 20 12 10 9 12 11 4 23 30 21 18 19 10 10 8 7 9 9 10 6 7 3 5 3 5 7 15 19 13 21 38 35 33 24 18
34 35 38 41 43 44 33 26 23 22 19 12 11 10 7 12 14 24 28 21 18 17 16 15 26 10 9 5 5 6 5 13 9 18 15 16 14 13 34 23 13 6 10 19 22
32 34 37 38 38 42 39 28 22 18 18 10 10 16 9 11 16 27 28 18 19 19 26 21 17 19 12 7 6 6 11 20 7 6 8 7 11 19 8 7 17 22 22 23 24
28 30 33 36 38 38 39 29 19 14 20 9 5 4 19 12 15 25 29 18 19 18 23 25 21 8 7 5 5 5 10 12 3 4 4 6 13 14 13 15 24 22 23 30 20
26 29 31 34 38 37 37 30 14 13 20 7 7 7 9 14 17 17 23 17 14 14 16 15 12 18 9 4 7 10 9 10 7 3 4 8 16 24 29 40 37 31 28 17 13
26 26 33 32 35 33 37 31 19 8 19 9 6 5 7 9 14 17 21 16 12 12 12 9 10 10 6 7 8 14 2 4 17 5 6 6 18 37 35 31 40 34 20 19 13
23 26 31 33 35 30 39 31 23 4 22 6 7 4 7 10 10 13 17 12 8 7 6 9 9 7 8 9 4 6 3 7 11 9 8 17 36 39 49 30 40 25 21 13 14
21 24 29 31 33 31 40 26 20 5 19 8 6 3 4 12 5 10 19 7 7 10 8 10 10 4 7 6 6 5 6 10 12 14 12 15 27 46 45 36 19 24 17 9 18
23 25 25 28 33 32 35 22 17 13 11 4 2 3 4 11 3 8 15 4 8 4 9 11 3 6 4 1 1 4 2 13 13 6 12 10 33 33 16 10 23 24 12 10 35
25 24 27 29 37 24 28 27 28 22 3 4 3 5 4 6 4 8 12 7 10 7 5 8 0 6 4 4 3 7 9 6 10 11 9 15 15 9 5 2 18 15 1 20 44
34 30 32 24 20 26 20 27 30 26 8 4 1 2 4 7 4 10 9 4 6 5 7 6 3 3 4 5 9 5 9 6 6 9 4 9 10 11 5 7 9 9 11 31 48
19 33 37 23 23 25 22 22 26 11 7 2 1 3 7 4 7 3 8 5 5 5 10 10 5 6 3 8 9 14 7 8 2 5 7 8 5 15 4 11 16 14 19 38 45
34 30 25 21 22 15 13 20 15 10 10 4 4 4 7 7 3 6 2 3 2 6 1 9 2 4 6 3 4 8 8 11 7 7 5 9 8 13 7 10 4 8 24 34 44
26 23 13 15 11 14 11 15 9 7 4 9 2 4 3 5 4 7 4 3 3 8 7 10 4 2 3 2 5 13 12 8 11 8 10 8 3 23 12 10 11 11 28 37 43
20 9 13 10 9 8 9 8 6 6 7 4 2 1 1 5 2 8 5 4 2 6 6 6 12 4 1 4 8 4 11 9 11 6 10 6 12 12 11 17 12 16 25 33 38
10 13 15 15 7 4 4 5 13 11 5 3 2 8 9 2 4 8 5 7 8 10 12 7 9 1 4 4 8 6 2 5 8 2 5 6 16 21 3 8 19 22 23 34 39
11 13 18 18 12 10 4 8 6 4 4 2 7 6 5 7 3 7 4 5 8 5 4 7 6 3 5 7 8 9 4 6 6 4 11 12 13 13 12 19 21 18 29 40 40
22 7 8 12 15 9 5 9 8 9 8 8 6 2 9 5 7 5 6 3 6 7 6 8 6 10 5 9 16 2 3 6 7 7 9 8 14 17 19 16 19 21 31 42 43
6 2 9 12 3 4 5 7 4 6 6 8 4 6 11 10 6 6 9 10 12 16 9 7 7 6 20 4 9 8 13 11 8 11 7 4 18 9 16 13 26 34 40 48 45
8 8 15 23 6 6 3 5 4 6 6 6 9 9 6 11 3 8 5 1 14 11 10 9 3 7 16 9 6 6 9 8 6 4 12 7 15 7 7 15 31 43 49 52 37
9 3 7 19 11 4 6 7 6 7 6 8 4 7 6 3 4 5 5 2 9 9 8 11 7 14 14 13 6 7 9 14 11 7 8 23 34 53 28 21 25 46 47 35 28
13 12 12 7 12 13 11 9 7 7 9 13 4 13 13 9 4 10 9 5 9 14 10 8 9 6 18 15 11 27 30 25 27 25 18 46 19 41 42 30 35 61 52 28 25
12 13 13 9 8 17 19 14 21 7 15 10 11 13 15 13 18 17 11 10 11 6 10 8 7 3 10 16 24 29 34 38 39 40 35 47 51 58 75 59 40 35 21 29 19
35 41 16 17 13 11 12 17 18 21 24 21 22 10 17 36 31 13 18 5 10 16 15 9 6 4 11 9 17 20 21 27 11 9 28 17 37 4 15 12 26 31 21 26 14
Wind_Direction_850mb
44 40 36 35 33 33 36 36 34 34 33 33 33 16 315 39 45 53 25 15 12 10 16 48 80 91 98 86 83 119 66 144 104 100 171 6 9 265 300 241 316 250 347 333 337
47 43 40 35 31 31 30 29 29 30 33 35 45 56 65 38 43 36 27 11 5 5 33 86 77 76 73 53 36 71 101 179 176 152 217 318 345 312 332 313 247 245 270 312 322
50 47 43 36 32 29 27 22 27 25 29 50 66 60 47 54 49 12 14 7 1 7 28 63 72 63 67 35 19 41 137 154 148 90 332 303 310 314 316 311 227 287 311 318 319
53 47 43 37 32 27 22 20 23 23 30 47 40 36 35 41 104 7 8 11 8 11 26 64 73 59 63 43 18 81 51 60 222 303 315 288 309 307 245 264 298 297 289 286 299
43 41 35 33 29 26 25 19 19 20 30 43 37 28 34 65 42 19 9 15 10 19 47 88 68 69 82 67 29 59 323 306 294 301 283 287 267 270 277 315 313 263 285 278 278
38 31 31 26 21 19 19 14 12 26 19 24 43 35 61 75 35 20 10 13 26 43 61 73 74 85 97 73 71 325 301 295 300 281 263 294 298 331 294 284 284 293 312 269 278
28 28 23 21 18 16 14 13 23 36 5 358 331 69 72 63 29 14 4 23 33 65 75 75 74 106 89 70 6 323 351 342 307 316 283 349 300 225 254 316 277 275 280 283 257
17 15 16 15 14 12 10 5 18 34 12 45 86 95 94 44 26 12 14 31 41 72 85 66 78 75 62 57 27 27 42 3 302 336 332 83 268 276 291 293 273 269 295 222 251
359 2 5 5 4 5 5 355 357 0 19 46 67 118 85 32 14 24 21 40 55 71 77 58 68 61 66 77 23 13 226 316 317 307 263 199 273 261 296 281 275 281 230 239 259
345 347 345 349 356 1 4 355 350 324 8 36 52 112 64 353 8 25 25 33 49 84 71 42 44 63 30 64 222 251 346 266 257 280 353 294 279 287 298 287 277 238 215 228 286
325 330 333 335 351 351 357 2 0 332 358 16 341 32 6 359 32 24 14 15 54 57 39 17 64 177 207 163 139 163 230 241 262 272 312 249 281 286 297 297 264 187 193 247 303
299 316 326 329 339 342 351 27 15 322 312 345 322 291 334 2 353 23 11 46 56 84 346 20 184 192 151 184 239 187 191 271 288 307 337 305 288 292 296 240 197 185 197 318 326
300 311 327 321 322 332 352 4 347 342 293 323 303 299 324 354 4 2 14 62 86 59 30 150 184 149 94 0 354 239 191 242 250 321 258 305 291 313 336 119 176 166 356 321 329
293 305 314 315 326 334 340 344 338 341 67 273 333 331 331 345 26 356 23 54 64 158 171 209 315 144 54 267 137 299 186 263 286 36 275 40 280 297 282 205 198 203 311 325 329
271 303 303 308 307 317 319 325 329 339 9 281 291 288 350 35 328 22 12 15 146 203 92 256 171 198 140 231 140 236 341 302 167 131 38 320 61 269 272 236 228 240 309 328 327
292 295 298 299 304 309 324 319 328 41 263 324 312 321 22 24 27 339 2 22 104 122 20 232 327 176 220 287 232 316 16 34 50 95 9 240 124 277 239 220 211 256 305 322 332
293 295 294 305 311 312 314 319 29 139 354 293 338 32 142 309 5 20 333 306 183 43 340 337 253 269 216 343 19 50 49 343 349 4 228 324 351 246 256 229 209 263 315 326 332
279 284 285 298 341 341 332 52 129 237 256 293 276 24 77 2 25 333 329 309 165 93 96 119 325 144 353 154 180 66 135 147 251 269 277 360 236 253 232 202 218 271 298 315 324
262 267 270 271 261 266 222 79 205 208 132 193 17 66 317 292 168 33 230 213 199 172 163 128 280 215 56 85 109 256 74 147 100 104 23 256 287 294 159 283 257 271 298 316 324
259 252 272 246 231 202 105 243 214 206 141 156 170 139 208 266 346 63 214 214 180 177 167 185 344 260 281 91 22 147 153 47 7 336 298 287 282 243 280 252 251 276 290 326 319
221 225 250 241 186 180 207 235 235 217 203 192 211 198 220 227 175 250 249 271 139 143 111 128 99 285 59 199 183 20 348 44 129 151 194 291 269 224 234 230 232 244 283 319 310
209 210 214 180 185 211 206 202 213 214 219 225 211 157 182 177 214 243 240 214 175 155 167 199 142 243 224 250 200 174 185 160 134 261 233 199 266 238 235 240 224 258 284 310 310
217 206 205 177 199 214 246 284 243 199 209 207 211 201 161 189 222 216 256 12 170 164 163 180 298 349 338 7 354 214 204 163 131 108 207 154 264 308 293 279 251 264 291 310 300
207 164 184 206 235 206 164 223 245 222 251 207 204 149 149 201 226 244 251 218 207 194 167 171 198 192 220 212 143 217 218 207 152 162 195 232 274 288 290 261 274 281 297 304 304
230 232 200 191 226 199 206 169 189 229 220 208 301 219 175 189 211 227 216 237 199 197 173 137 217 249 267 259 219 244 250 228 209 217 203 263 222 267 284 293 287 298 303 294 304
223 208 205 196 176 196 201 201 215 190 163 231 219 194 185 192 195 196 176 194 208 135 159 177 261 107 281 265 266 264 249 244 228 236 243 254 274 270 276 283 281 291 285 293 309
226 238 233 201 172 179 197 206 221 162 224 215 209 156 200 233 227 225 214 264 200 162 183 172 165 58 268 334 315 286 244 229 179 205 217 207 238 357 282 259 266 289 279 290 302